Location: PACMO
(41.3967°N, 90.3760°W)
Time: 10:23:56
(UTC-06:00)

Amateur Radio Satellites - All Passes

Search period start: 22 December 2014 09:53
Search period end: 23 December 2014 09:53
Location: PACMO, 41.3967°N, 90.3760°W

Satellite Date Start Highest point End Downlink Frequencies (MHz)
Time Altitude Azimuth
AAUSAT CUBESAT 2 22 Dec 09:54:12 09:58:11 40° 288° (WNW) 10:02:08 437.432
QB50P2 22 Dec 10:01:13 10:05:24 71° 75° (ENE) 10:09:38 145.880/145.840
UKube-1 22 Dec 10:01:20 10:05:41 80° 103° (ESE) 10:10:00 .
CUSAT 1 22 Dec 10:05:03 10:08:35 33° 291° (WNW) 10:13:13 437.405
BRITE-PL 22 Dec 10:08:42 10:12:20 22° 293° (WNW) 10:16:10 437.365/2234.400
UNISAT 6 22 Dec 10:09:07 10:13:26 62° 259° (W) 10:17:55 437.425
POLYITAN 1 22 Dec 10:10:43 10:14:56 90° 253° (WSW) 10:19:11 437.675
YUBILEINY 22 Dec 10:10:43 10:19:07 50° 75° (ENE) 10:27:28 435.215
NANOSAT C BR1 22 Dec 10:11:16 10:15:28 90° 252° (WSW) 10:19:42 145.865
CANX-2 22 Dec 10:15:35 10:18:14 16° 295° (WNW) 10:20:52 2200.000
CUBEBUG 2 22 Dec 10:24:12 10:28:49 65° 286° (WNW) 10:33:31 437.445
GOMX 1 22 Dec 10:26:01 10:29:34 21° 293° (WNW) 10:33:16 467.674
QB50P1 22 Dec 10:26:06 10:30:15 60° 259° (W) 10:34:26 145.935-145.965
ZACube-1 22 Dec 10:26:41 10:31:15 82° 284° (WNW) 10:35:51 437.345
COMPASS 1 22 Dec 10:32:06 10:34:38 16° 296° (WNW) 10:37:09 437.405
VELOX 1 22 Dec 10:35:03 10:39:27 63° 101° (ESE) 10:43:50 145.980
50 SAT 22 Dec 10:36:08 10:40:15 59° 101° (E) 10:44:21 437.505
DELFI C3 22 Dec 10:36:10 10:39:52 32° 290° (WNW) 10:43:32 145.870
RS-15 22 Dec 10:38:56 10:49:01 45° 109° (ESE) 10:59:05 29.354- 29.394
SEEDS 22 Dec 10:41:24 10:42:39 11° 298° (WNW) 10:43:53 437.485
ANTELSAT 22 Dec 10:41:59 10:45:45 28° 265° (W) 10:49:37 437.575/2403.000
DOVE 4 22 Dec 10:42:55 10:46:16 19° 294° (WNW) 10:49:44 437.250
ESTCUBE 1 22 Dec 10:44:39 10:48:42 32° 97° (E) 10:52:43 437.505/2401.250
FUNcube-1 22 Dec 10:53:03 10:57:22 44° 288° (WNW) 11:01:42 145.935
CINEMA 3 22 Dec 10:54:10 10:57:51 23° 293° (WNW) 11:01:37 145.822/145.860
POPSAT HIP 1 22 Dec 10:55:43 10:59:21 28° 264° (W) 11:03:01 437.405
HO-68 22 Dec 10:55:57 11:01:03 22° 304° (NW) 11:06:08 435.675
O/OREOS (USA 219) 22 Dec 10:58:04 11:01:54 28° 257° (WSW) 11:05:45 437.305
UWE-3 22 Dec 10:58:49 11:02:56 33° 290° (WNW) 11:07:07 435.000/436.395/437.385
DX 1 22 Dec 11:09:23 11:12:31 20° 295° (WNW) 11:15:38 434.975-435.025
BUGSAT 1 22 Dec 11:12:57 11:16:09 22° 265° (W) 11:19:21 437.445
HUMSAT D 22 Dec 11:13:13 11:17:19 42° 288° (WNW) 11:21:26 437.325/437.525
CUBEBUG 1 22 Dec 11:18:20 11:22:40 72° 102° (ESE) 11:27:00 437.445
TIGRISAT 22 Dec 11:18:37 11:20:25 12° 271° (W) 11:22:15 435.000
AISAT 22 Dec 11:19:34 11:23:44 41° 289° (WNW) 11:27:55 437.250
DUCHIFAT 1 22 Dec 11:24:15 11:26:36 15° 268° (W) 11:28:57 145.980
Oscar 19 22 Dec 11:29:40 11:33:12 19° 62° (ENE) 11:36:46 437.125/150
UKube-1 22 Dec 11:40:27 11:41:11 10° 300° (WNW) 11:41:54 .
ITAMSAT 1 22 Dec 11:51:50 11:53:33 12° 58° (ENE) 11:55:17 435.822/435.867
BEESAT 2 22 Dec 11:54:17 11:57:15 20° 111° (ESE) 12:00:16 435.950
YUBILEINY 22 Dec 12:08:00 12:15:36 36° 275° (W) 12:23:13 435.215
TISAT 1 22 Dec 12:08:53 12:13:06 64° 101° (ESE) 12:17:18 437.305
50 SAT 22 Dec 12:13:08 12:14:58 13° 297° (WNW) 12:16:47 437.505
VELOX 1 22 Dec 12:13:25 12:15:30 13° 298° (WNW) 12:17:36 145.980
SWISSCUBE 22 Dec 12:14:19 12:15:55 12° 89° (E) 12:17:31 437.505
ITUPSAT 1 22 Dec 12:16:07 12:17:10 11° 89° (E) 12:18:13 437.325
SPROUT 22 Dec 12:18:33 12:22:53 78° 102° (ESE) 12:27:11 437.525
ESTCUBE 1 22 Dec 12:21:48 12:25:25 24° 293° (WNW) 12:29:00 437.505/2401.250
BEESAT 22 Dec 12:37:22 12:40:47 19° 93° (E) 12:44:10 436.000
ISS 22 Dec 12:46:17 12:49:32 58° 141° (SE) 12:52:48 145.825
BEESAT 3 22 Dec 12:49:15 12:53:21 86° 122° (ESE) 12:57:31 437.485
RS-15 22 Dec 12:50:27 13:01:06 55° 312° (NW) 13:11:53 29.354- 29.394
AO-7 22 Dec 12:56:19 13:00:07 14° 44° (NE) 13:03:56 29.400- 29.500
CUBEBUG 1 22 Dec 12:57:05 12:58:27 11° 299° (WNW) 12:59:48 437.445
Oscar 19 22 Dec 13:07:03 13:12:05 56° 259° (W) 13:17:11 437.125/150
AIST 2 22 Dec 13:07:33 13:11:41 55° 118° (ESE) 13:15:53 435.215
PCSat 22 Dec 13:11:08 13:16:29 69° 116° (ESE) 13:21:54 145.827
ITAMSAT 1 22 Dec 13:27:03 13:32:14 86° 75° (ENE) 13:37:26 435.822/435.867
BEESAT 2 22 Dec 13:31:19 13:35:13 40° 308° (NW) 13:39:11 435.950
Gurwin Techsat 1B 22 Dec 13:33:51 13:39:04 61° 73° (ENE) 13:44:18 435.225
HORYU 2 22 Dec 13:39:06 13:42:43 25° 67° (ENE) 13:46:22 437.375
TISAT 1 22 Dec 13:46:43 13:48:23 12° 298° (WNW) 13:50:03 437.305
SWISSCUBE 22 Dec 13:49:31 13:54:17 73° 286° (WNW) 13:59:00 437.505
ITUPSAT 1 22 Dec 13:50:49 13:55:37 78° 285° (WNW) 14:00:21 437.325
SPROUT 22 Dec 13:57:33 13:58:20 10° 299° (WNW) 13:59:06 437.525
AUBIESAT-1 22 Dec 13:59:51 14:03:48 38° 102° (ESE) 14:07:26 437.475
GONETS M04 22 Dec 14:13:12 14:15:36 11° 54° (NE) 14:17:58
BEESAT 22 Dec 14:14:18 14:18:50 44° 289° (WNW) 14:23:20 436.000
ISS 22 Dec 14:23:32 14:26:19 24° 338° (NNW) 14:29:06 145.825
M-CUBED/EXP-1 PRIME 22 Dec 14:26:49 14:31:10 88° 111° (ESE) 14:35:05 437.505
BEESAT 3 22 Dec 14:30:06 14:32:07 13° 321° (NW) 14:34:09 437.485
JAS-2 22 Dec 14:35:05 14:39:46 19° 59° (ENE) 14:44:11 435.910
STARS 22 Dec 14:36:29 14:40:46 45° 99° (E) 14:45:02 437.465
AO-7 22 Dec 14:43:04 14:51:10 59° 66° (ENE) 14:59:19 29.400- 29.500
KKS-1 22 Dec 14:44:32 14:49:02 85° 103° (ESE) 14:53:31 437.445
AIST 2 22 Dec 14:47:34 14:50:37 19° 317° (NW) 14:53:43 435.215
PCSat 22 Dec 14:56:23 15:00:25 21° 315° (NW) 15:04:29 145.827
RS-15 22 Dec 15:08:28 15:16:42 23° 343° (NNW) 15:25:07 29.354- 29.394
ITAMSAT 1 22 Dec 15:11:03 15:12:22 11° 271° (W) 15:13:40 435.822/435.867
HORYU 2 22 Dec 15:15:14 15:19:14 32° 263° (W) 15:23:16 437.375
Gurwin Techsat 1B 22 Dec 15:16:06 15:19:26 17° 269° (W) 15:22:47 435.225
AUBIESAT-1 22 Dec 15:35:23 15:38:27 19° 301° (WNW) 15:41:20 437.475
AIST 1 22 Dec 15:56:46 16:01:03 58° 94° (E) 16:05:20
ISS 22 Dec 16:01:57 16:03:46 14° 359° (N) 16:05:35 145.825
GONETS M04 22 Dec 16:05:58 16:14:38 59° 78° (ENE) 16:23:09
MOZHAYETS 4 22 Dec 16:09:27 16:13:06 23° 94° (E) 16:16:42
STARS 22 Dec 16:13:56 16:16:53 18° 296° (WNW) 16:19:51 437.465
JAS-2 22 Dec 16:16:25 16:24:03 89° 76° (ENE) 16:30:59 435.910
KKS-1 22 Dec 16:24:16 16:24:59 10° 300° (WNW) 16:25:42 437.445
AO-7 22 Dec 16:37:11 16:44:19 31° 264° (W) 16:51:32 29.400- 29.500
Cubesat XI-IV 22 Dec 16:39:23 16:44:02 32° 67° (ENE) 16:48:41 437.490
CUTE-I 22 Dec 17:11:18 17:16:31 60° 72° (ENE) 17:21:45 437.470
RS-15 22 Dec 17:25:50 17:34:27 25° 20° (NNE) 17:43:16 29.354- 29.394
AIST 1 22 Dec 17:37:13 17:39:06 13° 291° (WNW) 17:41:00
ISS 22 Dec 17:38:40 17:41:16 21° 19° (NNE) 17:43:52 145.825
CUBESAT XI-V 22 Dec 17:39:30 17:42:01 14° 91° (E) 17:44:31 437.345
MaSat-1 22 Dec 17:40:02 17:42:26 83° 249° (WSW) 17:44:58 437.345
PRISM 22 Dec 17:42:12 17:45:48 28° 97° (E) 17:49:22 437.425
MOZHAYETS 4 22 Dec 17:46:11 17:50:24 36° 290° (WNW) 17:54:34
HO-68 22 Dec 17:53:26 17:55:51 12° 49° (NE) 17:58:16 435.675
GONETS M04 22 Dec 18:03:40 18:10:51 30° 277° (W) 18:17:59
JAS-2 22 Dec 18:05:07 18:09:39 17° 270° (W) 18:14:00 435.910
Cubesat XI-IV 22 Dec 18:19:15 18:24:02 33° 263° (W) 18:28:50 437.490
DANDE 22 Dec 18:20:18 18:24:49 16° 62° (ENE) 18:29:35 436.750
STRAND 1 22 Dec 18:41:19 18:46:18 52° 100° (E) 18:51:15 437.568
CUTE-I 22 Dec 18:53:33 18:56:58 17° 268° (W) 19:00:25 437.470
CUSAT 1 22 Dec 18:59:10 19:06:07 33° 70° (ENE) 19:13:31 437.405
SO-50 22 Dec 19:07:42 19:09:34 12° 107° (ESE) 19:11:27 436.795
AAUSAT CUBESAT 2 22 Dec 19:12:14 19:14:09 13° 63° (ENE) 19:16:04 437.432
ISS 22 Dec 19:14:53 19:18:10 78° 216° (SW) 19:21:25 145.825
CUBESAT XI-V 22 Dec 19:15:18 19:19:48 55° 287° (WNW) 19:24:17 437.345
PRISM 22 Dec 19:17:54 19:21:12 23° 293° (WNW) 19:24:29 437.425
CANX-2 22 Dec 19:31:50 19:35:43 35° 71° (ENE) 19:39:38 2200.000
HO-68 22 Dec 19:35:05 19:42:06 60° 68° (ENE) 19:49:08 435.675
RS-15 22 Dec 19:38:45 19:49:51 60° 50° (NE) 20:01:25 29.354- 29.394
BRITE-PL 22 Dec 19:41:30 19:45:26 44° 72° (ENE) 19:49:23 437.365/2234.400
COMPASS 1 22 Dec 19:47:04 19:50:52 34° 71° (ENE) 19:54:43 437.405
CUBEBUG 2 22 Dec 19:50:10 19:51:02 11° 61° (ENE) 19:51:53 437.445
DELFI C3 22 Dec 19:51:19 19:53:29 14° 64° (ENE) 19:55:40 145.870
SEEDS 22 Dec 19:55:29 19:59:35 50° 73° (ENE) 20:03:45 437.485
GOMX 1 22 Dec 19:56:17 20:00:13 45° 72° (ENE) 20:04:14 467.674
DANDE 22 Dec 20:01:31 20:09:24 70° 79° (ENE) 20:18:05 436.750
CUTE 1.7 + AOD 2 22 Dec 20:01:54 20:06:09 70° 75° (ENE) 20:10:26 437.475
DOVE 4 22 Dec 20:10:47 20:14:45 47° 73° (ENE) 20:18:50 437.250
BEESAT 2 22 Dec 20:13:53 20:16:38 17° 42° (NE) 20:19:21 435.950
FUNcube-1 22 Dec 20:15:05 20:17:22 14° 63° (ENE) 20:19:40 145.935
PCSat 22 Dec 20:18:02 20:19:42 11° 35° (NE) 20:21:22 145.827
CINEMA 3 22 Dec 20:19:04 20:22:51 34° 70° (ENE) 20:26:44 145.822/145.860
UWE-3 22 Dec 20:20:57 20:24:00 20° 66° (ENE) 20:27:06 435.000/436.395/437.385
STRAND 1 22 Dec 20:21:28 20:25:05 20° 297° (WNW) 20:28:42 437.568
DX 1 22 Dec 20:28:22 20:32:18 35° 70° (ENE) 20:36:15 434.975-435.025
HUMSAT D 22 Dec 20:32:17 20:34:09 13° 63° (ENE) 20:36:01 437.325/437.525
CUSAT 1 22 Dec 20:41:43 20:49:31 61° 266° (W) 20:57:51 437.405
AISAT 22 Dec 20:42:46 20:45:42 18° 64° (ENE) 20:48:39 437.250
SO-50 22 Dec 20:44:54 20:49:26 73° 304° (NW) 20:54:07 436.795
AAUSAT CUBESAT 2 22 Dec 20:45:09 20:49:18 59° 260° (W) 20:53:30 437.432
Oscar 11 22 Dec 20:46:17 20:50:35 70° 75° (ENE) 20:54:56 145.826/435.025
UKube-1 22 Dec 20:56:23 21:00:41 69° 74° (ENE) 21:05:01 .
CANX-2 22 Dec 21:08:35 21:11:44 20° 267° (W) 21:14:56 2200.000
BEESAT 3 22 Dec 21:09:00 21:13:06 53° 54° (NE) 21:17:09 437.485
BRITE-PL 22 Dec 21:22:01 21:24:15 14° 269° (W) 21:26:28 437.365/2234.400
CUBEBUG 2 22 Dec 21:22:53 21:27:04 74° 258° (WSW) 21:31:23 437.445
ZACube-1 22 Dec 21:23:01 21:27:12 80° 76° (ENE) 21:31:30 437.345
COMPASS 1 22 Dec 21:23:31 21:26:40 20° 267° (W) 21:29:50 437.405
DELFI C3 22 Dec 21:24:19 21:28:19 50° 260° (W) 21:32:21 145.870
HO-68 22 Dec 21:24:23 21:30:11 26° 266° (W) 21:36:02 435.675
50 SAT 22 Dec 21:24:38 21:28:20 36° 71° (ENE) 21:32:04 437.505
AIST 2 22 Dec 21:29:35 21:33:37 38° 51° (NE) 21:37:36 435.215
TIGRISAT 22 Dec 21:32:21 21:34:44 14° 90° (E) 21:37:07 435.000
VELOX 1 22 Dec 21:32:59 21:37:18 57° 73° (ENE) 21:41:39 145.980
SEEDS 22 Dec 21:33:30 21:35:42 14° 269° (W) 21:37:56 437.485
GOMX 1 22 Dec 21:36:29 21:38:40 14° 269° (W) 21:40:52 467.674
ESTCUBE 1 22 Dec 21:44:39 21:48:38 31° 69° (ENE) 21:52:38 437.505/2401.250
DANDE 22 Dec 21:45:57 21:52:24 28° 274° (W) 21:59:18 436.750
QB50P2 22 Dec 21:49:01 21:50:34 12° 90° (E) 21:52:06 145.880/145.840
FUNcube-1 22 Dec 21:49:10 21:53:15 52° 260° (W) 21:57:27 145.935
DOVE 4 22 Dec 21:50:49 21:52:52 13° 270° (W) 21:54:57 437.250
BEESAT 2 22 Dec 21:51:07 21:55:17 62° 241° (WSW) 21:59:21 435.950
RS-15 22 Dec 21:51:34 22:01:54 43° 251° (WSW) 22:12:41 29.354- 29.394
UWE-3 22 Dec 21:56:25 22:00:17 36° 263° (W) 22:04:16 435.000/436.395/437.385
CINEMA 3 22 Dec 21:57:11 22:00:11 19° 267° (W) 22:03:16 145.822/145.860
POLYITAN 1 22 Dec 21:57:52 22:00:24 15° 92° (E) 22:02:55 437.675
NANOSAT C BR1 22 Dec 21:57:59 22:00:25 15° 92° (E) 22:02:50 145.865
PCSat 22 Dec 21:59:02 22:04:22 55° 57° (ENE) 22:09:40 145.827
UNISAT 6 22 Dec 22:01:27 22:05:32 28° 95° (E) 22:09:35 437.425
DX 1 22 Dec 22:05:21 22:08:37 21° 266° (W) 22:11:54 434.975-435.025
HUMSAT D 22 Dec 22:05:22 22:09:26 58° 260° (W) 22:13:35 437.325/437.525
QB50P1 22 Dec 22:12:07 22:15:25 21° 94° (E) 22:18:42 145.935-145.965
CUBEBUG 1 22 Dec 22:14:39 22:18:57 60° 74° (ENE) 22:23:15 437.445
AISAT 22 Dec 22:17:46 22:21:59 44° 261° (W) 22:26:14 437.250
Oscar 11 22 Dec 22:26:39 22:27:14 10° 271° (W) 22:27:48 145.826/435.025
SO-50 22 Dec 22:28:41 22:30:51 13° 325° (NW) 22:33:03 436.795
CUSAT 1 22 Dec 22:28:44 22:31:18 12° 282° (WNW) 22:33:55 437.405
ANTELSAT 22 Dec 22:33:12 22:37:54 61° 101° (E) 22:42:34 437.575/2403.000
UKube-1 22 Dec 22:36:38 22:37:18 10° 270° (W) 22:37:58 .
POPSAT HIP 1 22 Dec 22:40:32 22:44:38 44° 99° (E) 22:48:43 437.405
BEESAT 3 22 Dec 22:48:32 22:50:49 15° 251° (WSW) 22:53:05 437.485
BUGSAT 1 22 Dec 22:54:22 22:58:19 49° 100° (E) 23:02:18 437.445
50 SAT 22 Dec 23:01:02 23:03:41 17° 267° (W) 23:06:21 437.505
TISAT 1 22 Dec 23:01:35 23:05:37 48° 72° (ENE) 23:09:40 437.305
DUCHIFAT 1 22 Dec 23:07:09 23:11:25 89° 106° (ESE) 23:15:42 145.980
TIGRISAT 22 Dec 23:07:12 23:11:51 62° 286° (WNW) 23:16:30 435.000
AIST 2 22 Dec 23:08:42 23:12:01 22° 248° (WSW) 23:15:16 435.215
YUBILEINY 22 Dec 23:11:24 23:19:51 57° 91° (E) 23:28:18 435.215
VELOX 1 22 Dec 23:12:12 23:14:15 13° 269° (W) 23:16:17 145.980
SPROUT 22 Dec 23:12:51 23:17:03 59° 74° (ENE) 23:21:17 437.525
SWISSCUBE 22 Dec 23:20:54 23:23:39 15° 62° (ENE) 23:26:23 437.505
ESTCUBE 1 22 Dec 23:21:46 23:25:30 25° 265° (W) 23:29:16 437.505/2401.250
ITUPSAT 1 22 Dec 23:22:37 23:25:11 15° 61° (ENE) 23:27:45 437.325
QB50P2 22 Dec 23:22:37 23:26:51 60° 286° (WNW) 23:31:04 145.880/145.840
O/OREOS (USA 219) 22 Dec 23:31:05 23:35:00 31° 104° (ESE) 23:38:57 437.305
NANOSAT C BR1 22 Dec 23:32:26 23:36:32 47° 288° (WNW) 23:40:37 145.865
POLYITAN 1 22 Dec 23:32:27 23:36:34 47° 288° (WNW) 23:40:42 437.675
UNISAT 6 22 Dec 23:38:09 23:42:16 31° 291° (WNW) 23:46:23 437.425
M-CUBED/EXP-1 PRIME 22 Dec 23:42:44 23:45:41 16° 57° (ENE) 23:48:38 437.505
PCSat 22 Dec 23:43:23 23:47:20 21° 254° (WSW) 23:51:17 145.827
BEESAT 22 Dec 23:44:09 23:47:55 24° 66° (ENE) 23:51:42 436.000
QB50P1 22 Dec 23:47:32 23:51:21 32° 290° (WNW) 23:55:10 145.935-145.965
CUBEBUG 1 22 Dec 23:54:01 23:55:42 12° 270° (W) 23:57:23 437.445
ANTELSAT 23 Dec 00:11:25 00:14:11 16° 297° (WNW) 00:16:57 437.575/2403.000
POPSAT HIP 1 23 Dec 00:17:26 00:20:11 17° 295° (WNW) 00:22:57 437.405
BUGSAT 1 23 Dec 00:31:17 00:33:25 14° 296° (WNW) 00:35:33 437.445
TISAT 1 23 Dec 00:39:28 00:41:43 14° 268° (W) 00:43:58 437.305
AUBIESAT-1 23 Dec 00:47:46 00:52:31 58° 68° (ENE) 00:57:19 437.475
VERMONT LUNAR 23 Dec 00:50:25 00:51:57 12° 147° (SSE) 00:53:29 437.305
SPROUT 23 Dec 00:51:58 00:53:31 12° 270° (W) 00:55:05 437.525
SWISSCUBE 23 Dec 00:56:14 01:00:58 63° 259° (WSW) 01:05:45 437.505
ITUPSAT 1 23 Dec 00:57:44 01:02:30 67° 258° (WSW) 01:07:19 437.325
YUBILEINY 23 Dec 01:09:31 01:17:04 32° 291° (WNW) 01:24:38 435.215
O/OREOS (USA 219) 23 Dec 01:10:42 01:14:24 25° 302° (WNW) 01:18:08 437.305
M-CUBED/EXP-1 PRIME 23 Dec 01:15:14 01:20:05 71° 253° (WSW) 01:25:00 437.505
PHONESAT 2.4 23 Dec 01:16:31 01:18:13 13° 147° (SSE) 01:19:56 2401.200-2431.200
Oscar 19 23 Dec 01:18:28 01:23:33 52° 100° (E) 01:28:35 437.125/150
BEESAT 23 Dec 01:21:05 01:25:32 38° 262° (W) 01:30:01 436.000
STARS 23 Dec 01:33:51 01:37:57 40° 71° (ENE) 01:42:04 437.465
ITAMSAT 1 23 Dec 01:40:16 01:44:48 30° 96° (E) 01:49:18 435.822/435.867
KKS-1 23 Dec 01:42:49 01:47:13 77° 75° (ENE) 01:51:40 437.445
Gurwin Techsat 1B 23 Dec 01:50:37 01:54:53 24° 94° (E) 01:59:07 435.225
AIST 1 23 Dec 02:05:23 02:07:48 15° 70° (ENE) 02:10:11
AUBIESAT-1 23 Dec 02:24:35 02:27:44 17° 264° (W) 02:30:55 437.475
VERMONT LUNAR 23 Dec 02:26:20 02:29:42 43° 162° (SSE) 02:33:05 437.305
AO-7 23 Dec 02:46:22 02:51:32 17° 90° (E) 02:56:39 29.400- 29.500
PHONESAT 2.4 23 Dec 02:52:53 02:56:21 44° 162° (SSE) 02:59:50 2401.200-2431.200
Oscar 19 23 Dec 02:58:42 03:02:29 21° 297° (WNW) 03:06:16 437.125/150
HORYU 2 23 Dec 03:06:13 03:10:36 48° 100° (E) 03:14:57 437.375
STARS 23 Dec 03:11:35 03:14:35 18° 267° (W) 03:17:37 437.465
MOZHAYETS 4 23 Dec 03:11:50 03:15:26 23° 66° (ENE) 03:19:03
GONETS M04 23 Dec 03:17:24 03:20:09 12° 73° (ENE) 03:22:54
ITAMSAT 1 23 Dec 03:19:40 03:24:16 33° 293° (WNW) 03:28:51 435.822/435.867
Gurwin Techsat 1B 23 Dec 03:30:00 03:35:00 43° 290° (WNW) 03:39:58 435.225
SO-50 23 Dec 03:36:47 03:40:04 18° 40° (NE) 03:43:21 436.795
AIST 1 23 Dec 03:41:38 03:45:44 45° 267° (W) 03:49:47
VERMONT LUNAR 23 Dec 04:04:21 04:07:53 79° 178° (S) 04:11:24 437.305
PHONESAT 2.4 23 Dec 04:31:17 04:34:54 79° 178° (S) 04:38:32 2401.200-2431.200
PRISM 23 Dec 04:33:21 04:36:42 23° 67° (ENE) 04:40:03 437.425
AO-7 23 Dec 04:36:56 04:45:22 88° 108° (ESE) 04:53:43 29.400- 29.500
CUBESAT XI-V 23 Dec 04:43:31 04:46:17 16° 63° (ENE) 04:49:03 437.345
HORYU 2 23 Dec 04:43:54 04:46:53 18° 296° (WNW) 04:49:51 437.375
MOZHAYETS 4 23 Dec 04:48:07 04:52:25 37° 263° (W) 04:56:46
Cubesat XI-IV 23 Dec 04:58:38 05:00:22 11° 89° (E) 05:02:05 437.490
GONETS M04 23 Dec 05:06:26 05:15:10 68° 93° (E) 05:23:54
JAS-2 23 Dec 05:11:59 05:17:34 78° 103° (ESE) 05:22:45 435.910
SO-50 23 Dec 05:16:18 05:21:13 82° 239° (WSW) 05:26:07 436.795
CUTE-I 23 Dec 05:29:02 05:33:14 23° 94° (E) 05:37:25 437.470
VERMONT LUNAR 23 Dec 05:42:38 05:46:05 52° 195° (SSW) 05:49:31 437.305
STRAND 1 23 Dec 05:57:14 06:02:20 76° 74° (ENE) 06:07:26 437.568
PRISM 23 Dec 06:08:21 06:12:05 30° 263° (W) 06:15:49 437.425
PHONESAT 2.4 23 Dec 06:09:57 06:13:29 52° 195° (SSW) 06:17:01 2401.200-2431.200
CUBESAT XI-V 23 Dec 06:18:40 06:23:15 57° 260° (W) 06:27:51 437.345
AO-7 23 Dec 06:31:04 06:37:07 23° 308° (NW) 06:43:10 29.400- 29.500
Cubesat XI-IV 23 Dec 06:35:45 06:41:06 85° 285° (WNW) 06:46:25 437.490
JAS-2 23 Dec 06:59:06 07:01:50 14° 303° (WNW) 07:04:29 435.910
GONETS M04 23 Dec 07:05:31 07:12:42 27° 293° (WNW) 07:19:55
CUTE-I 23 Dec 07:08:27 07:13:29 44° 290° (WNW) 07:18:30 437.470
VERMONT LUNAR 23 Dec 07:21:39 07:23:56 16° 211° (SSW) 07:26:12 437.305
STRAND 1 23 Dec 07:39:58 07:42:04 12° 270° (W) 07:44:09 437.568
BRITE-PL 23 Dec 07:46:02 07:49:06 16° 92° (E) 07:52:17 437.365/2234.400
PHONESAT 2.4 23 Dec 07:49:20 07:51:43 17° 211° (SSW) 07:54:05 2401.200-2431.200
CUTE 1.7 + AOD 2 23 Dec 07:49:25 07:51:12 12° 90° (E) 07:52:58 437.475
GOMX 1 23 Dec 07:58:13 08:01:11 16° 92° (E) 08:04:13 467.674
DOVE 4 23 Dec 08:10:21 08:13:14 15° 91° (E) 08:16:11 437.250
CUSAT 1 23 Dec 08:12:41 08:15:27 18° 81° (E) 08:18:45 437.405
Cubesat XI-IV 23 Dec 08:18:26 08:20:21 12° 303° (WNW) 08:22:16 437.490
AAUSAT CUBESAT 2 23 Dec 08:29:21 08:32:39 22° 94° (E) 08:35:55 437.432
MaSat-1 23 Dec 08:29:22 08:31:20 25° 300° (WNW) 08:33:15 437.345
TIGRISAT 23 Dec 08:32:31 08:34:20 12° 61° (ENE) 08:36:10 435.000
Oscar 11 23 Dec 08:35:37 08:37:34 13° 90° (E) 08:39:31 145.826/435.025
UKube-1 23 Dec 08:46:37 08:47:59 11° 90° (E) 08:49:21 .
HO-68 23 Dec 08:50:06 08:57:11 61° 102° (ESE) 09:04:13 435.675
NANOSAT C BR1 23 Dec 08:52:19 08:54:01 12° 62° (ENE) 08:55:43 145.865
POLYITAN 1 23 Dec 08:52:37 08:54:26 13° 63° (ENE) 08:56:16 437.675
CANX-2 23 Dec 08:52:45 08:57:05 70° 101° (ESE) 09:01:22 2200.000
UNISAT 6 23 Dec 09:01:12 09:04:47 25° 67° (ENE) 09:08:26 437.425
DELFI C3 23 Dec 09:05:28 09:08:42 22° 94° (E) 09:11:54 145.870
QB50P1 23 Dec 09:06:02 09:08:49 17° 65° (ENE) 09:11:36 145.935-145.965
COMPASS 1 23 Dec 09:06:10 09:10:25 65° 101° (E) 09:14:37 437.405
ZACube-1 23 Dec 09:12:50 09:15:45 17° 92° (E) 09:18:40 437.345
CUBEBUG 2 23 Dec 09:14:20 09:18:10 24° 94° (E) 09:22:01 437.445
SEEDS 23 Dec 09:15:46 09:20:05 82° 284° (WNW) 09:24:21 437.485
DANDE 23 Dec 09:17:16 09:20:55 74° 97° (E) 09:25:57 436.750
YUBILEINY 23 Dec 09:21:50 09:29:03 28° 67° (ENE) 09:36:12 435.215
BRITE-PL 23 Dec 09:23:08 09:27:50 57° 286° (WNW) 09:32:54 437.365/2234.400
CUTE 1.7 + AOD 2 23 Dec 09:23:14 09:27:29 58° 286° (WNW) 09:31:42 437.475
VELOX 1 23 Dec 09:26:28 09:27:31 11° 90° (E) 09:28:35 145.980
ANTELSAT 23 Dec 09:32:34 09:36:50 52° 73° (ENE) 09:41:15 437.575/2403.000
POPSAT HIP 1 23 Dec 09:33:56 09:37:43 34° 70° (ENE) 09:41:32 437.405
GOMX 1 23 Dec 09:34:47 09:39:34 60° 286° (WNW) 09:44:39 467.674
FUNcube-1 23 Dec 09:37:47 09:41:48 30° 96° (E) 09:45:49 145.935
O/OREOS (USA 219) 23 Dec 09:40:18 09:44:47 63° 66° (ENE) 09:49:17 437.305
BUGSAT 1 23 Dec 09:45:01 09:48:44 35° 71° (ENE) 09:52:25 437.445
